This is the latest recevied weather packets stored in our database for station/object K3TLB-13. If no packets are shown the sender has not sent any weather packets the latest 10 day(s).
| Time | Temp. | Humidity | Pressure | Rain* | Wind** | Luminosity | Snow |
|---|---|---|---|---|---|---|---|
| 1778174035 | 15.56° C | 39% | 1010.7 hPa | 0 mm | - | - | - |
| 1778173913 | 15° C | 39% | 1010.9 hPa | 0 mm | - | - | - |
| 1778173735 | 15.56° C | 39% | 1010.8 hPa | 0 mm | - | - | - |
| 1778173471 | 15° C | 39% | 1010.9 hPa | 0 mm | - | - | - |
| 1778173435 | 15° C | 39% | 1010.9 hPa | 0 mm | - | - | - |
| 1778173135 | 15° C | 38% | 1010.9 hPa | 0 mm | - | - | - |
| 1778172835 | 15° C | 43% | 1011.1 hPa | 0 mm | - | - | - |
| 1778172580 | 15° C | 43% | 1011.2 hPa | 0 mm | - | - | - |
| 1778172535 | 15° C | 43% | 1011.2 hPa | 0 mm | - | - | - |
| 1778172414 | 15° C | 41% | 1011.2 hPa | 0 mm | - | - | - |
| 1778172236 | 15° C | 41% | 1011.2 hPa | 0 mm | - | - | - |
| 1778171936 | 15° C | 40% | 1011.2 hPa | 0 mm | - | - | - |
| 1778171681 | 15° C | 39% | 1011.4 hPa | 0 mm | - | - | - |
| 1778171635 | 15° C | 41% | 1011.3 hPa | 0 mm | - | - | - |
| 1778171335 | 15° C | 39% | 1011.4 hPa | 0 mm | - | - | - |
| 1778171036 | 15° C | 40% | 1011.5 hPa | 0 mm | - | - | - |
| 1778170735 | 15° C | 45% | 1011.5 hPa | 0 mm | - | - | - |
| 1778170435 | 14.44° C | 43% | 1011.5 hPa | 0 mm | - | - | - |
| 1778170299 | 14.44° C | 44% | 1011.6 hPa | 0 mm | - | - | - |
| 1778170135 | 14.44° C | 44% | 1011.6 hPa | 0 mm | - | - | - |
| 1778169835 | 13.89° C | 43% | 1011.7 hPa | 0 mm | - | - | - |
| 1778169535 | 13.89° C | 41% | 1011.9 hPa | 0 mm | - | - | - |
| 1778169238 | 13.89° C | 38% | 1011.7 hPa | 0 mm | - | - | - |
| 1778168635 | 13.89° C | 39% | 1011.9 hPa | 0 mm | - | - | - |
| 1778168456 | 13.89° C | 41% | 1012 hPa | 0 mm | - | - | - |
* Rain latest hour (hover to see other rain measurements)
** Current wind speed in m/s (hover to see current wind gust speed)